User: anonymous   Login
Location: Niverville
(49.6028°N, 97.0419°W)
Time: 00:56:45
(UTC-05:00)
Language:

BREEZE-M DEB (TANK) - Orbit

View from above orbital plane
View from above orbital plane
View from above satellite
View from above satellite

Ground track
Ground track

The orbit data is extracted from the following two-line orbital elements,

1 33374U 08044B   16121.57677551  .00001536  00000-0  66548-3 0  9997
2 33374  49.4331 213.8162 5427382 196.6690 134.4098  4.86271770133915
Epoch (UTC): 30 April 2016 13:50:33
Eccentricity: 0.5427382
inclination: 49.4331°
perigee height: 351 km
apogee height: 16326 km
right ascension of ascending node: 213.8162°
argument of perigee: 196.6690°
revolutions per day: 4.86271770
mean anomaly at epoch: 134.4098°
orbit number at epoch: 13391

The dashed part of the orbit path shows where the satellite is in the earth's shadow,  

DLR